User: anonymous
Location: Caltech
(34.1382°N, 118.1253°W)
Time: 18:48:29
(UTC-07:00)
Language:

Cosmos 1975 - Orbit

View from above orbital plane
View from above orbital plane
View from above satellite
View from above satellite

Ground track
Ground track

The orbit data is extracted from the following two-line orbital elements,

1 19573U 88093A   14108.47101376  .00004278  00000-0  34035-3 0  1661
2 19573 082.5249 021.0653 0013977 264.9341 095.0287 15.00117861386244
Epoch (UTC): 18 April 2014 11:18:15
Eccentricity: 0.0013977
inclination: 82.5249°
perigee height: 557 km
apogee height: 576 km
right ascension of ascending node: 21.0653°
argument of perigee: 264.9341°
revolutions per day: 15.00117861
mean anomaly at epoch: 95.0287°
orbit number at epoch: 38624

The dashed part of the orbit path shows where the satellite is in the earth's shadow,  

DLR